1st Responders/1st Detectors/Storm Spotters Weather Summary for Simpson County, KY

Forecast Maps


Reg. NEXRAD Animation


National Fire Danger: Day 1 & 2 Map

Current NWS Watch/Warnings

SPC Convective Day 1 Outlook


Day 2 Outlook

(Click images to enlarge|Page will refresh every 5 minutes)
UK Ag. Weather Center Desktop Severe Weather Service[HERE]
Simpson County, KY Hazardous Weather Outlook Webcast
(9 AM to 9 PM Mon-Fri)
[Fast]
[Dial-up]


UKAWC 1st Detectors/1st Responders Precision Weather Forecast For SIMPSON County, Kentucky
(based on the NWS County Digital Forecast)

ISSUED AT 21:00 UTC ON THURSDAY OCT 19 2017
DAY THURSDAY
CDT 3HR 5P 6P
MAX/MIN -- 74°
TEMP 70° 67°
SKY COVER 1% 1%
Clouds
DEW PT 49° 49°
RH 45% 50%
POP 12HR -- --
RAIN/SNOW (liq.equ) -- --
SNOWFALL -- --
WIND SPEED(MPH) 5 5
WIND Gust(MPH) 5 5
WIND DIR S S
DEW -- --
HeatIndex 70 67
Rain Showers -- --
Thunder Storm -- --
WIND CHILL -- --
SPRAY COND
DRY COND
LIVESTOCK COLDSTRESS
LIVESTOCK HEATSTRESS 66.61 64.75



DAY FRIDAY SATURDAY SUNDAY MONDAY TUESDAY WEDNESDAY
CDT 6HR 7P 8P 9P 10P 11P MIDN 1A 2A 3A 4A 5A 6A 7A 8A 9A 10A 11A NOON 1P 2P 3P 4P 5P 6P 7P 8P 9P 10P 11P MIDN 1A 2A 3A 4A 7A 10A 1P 4P 7P 1A 7A 1P 7P 1A 7A 1P 7P 1A 7A 1P 7P 1A 7A 1P 7P
MAX/MIN -- -- -- -- -- -- -- -- -- -- -- -- 47° -- -- -- -- -- -- -- -- -- -- 76° -- -- -- -- -- -- -- -- -- -- 49° -- -- 76° -- -- 58° 76° -- -- 59° 68° -- -- 50° 65° -- -- 43° 58° --
TEMP 63° 61° 58° 56° 54° 54° 52° 52° 52° 49° 47° 47° 47° 52° 58° 63° 68° 72° 74° 76° 76° 76° 72° 68° 63° 61° 58° 58° 56° 56° 56° 54° 54° 52° 50° 65° 74° 76° 67° 59° 59° 76° 67° 63° 59° 68° 63° 58° 50° 65° 56° 49° 45° 58° 50°
SKY COVER 1% 1% 1% 1% 1% 1% 1% 1% 1% 2% 2% 3% 4% 6% 5% 4% 3% 2% 2% 4% 9% 11% 16% 26% 31% 30% 30% 30% 30% 32% 33% 32% 29% 27% 25% 20% 40% 38% 57% 53% 78% 83% 86% 92% 91% 83% 74% 59% 48% 51% 39% 36% 29% 26% 34%
Clouds
DEW PT 49° 49° 49° 49° 49° 49° 47° 47° 47° 47° 47° 47° 47° 49° 50° 52° 52° 52° 52° 52° 50° 50° 52° 52° 52° 52° 50° 50° 49° 49° 47° 47° 47° 47° 45° 50° 54° 54° 54° 50° 54° 61° 61° 61° 59° 61° 58° 54° 49° 49° 43° 40° 38° 36° 38°
RH 59% 64% 71% 74% 79% 82% 82% 83% 86% 89% 96% 100% 96% 89% 77% 64% 54% 49% 46% 43% 39% 41% 47% 56% 67% 72% 74% 77% 77% 74% 74% 77% 77% 80% 82% 60% 49% 48% 62% 72% 80% 60% 81% 90% 99% 75% 87% 86% 93% 56% 63% 71% 75% 45% 63%
POP 12HR 0% -- -- -- -- -- -- -- -- -- -- -- 0% -- -- -- -- -- -- -- -- -- -- -- 0% -- -- -- -- -- -- -- -- -- 2% -- -- -- 2% -- 5% -- 46% -- 67% -- 69% -- 49% -- 30% -- 4% -- 10%
RAIN/SNOW (liq.equ) 0.00in -- -- -- -- -- 0.00in -- -- -- -- -- 0.00in -- -- -- -- -- 0.00in -- -- -- -- -- 0.00in -- -- -- -- -- 0.00in -- -- -- 0.00in -- 0.00in -- 0.00in -- -- -- -- -- -- -- -- -- -- -- -- -- -- -- --
SNOWFALL 0in -- -- -- -- -- 0in -- -- -- -- -- 0in -- -- -- -- -- 0in -- -- -- -- -- 0in -- -- -- -- -- 0in -- -- -- 0in -- 0in -- 0in -- -- -- -- -- -- -- -- -- -- -- -- -- -- -- --
WIND SPEED(MPH) 5 2 2 2 2 2 2 2 2 2 2 2 2 2 2 2 5 2 5 5 5 5 5 5 5 2 2 2 2 5 5 5 5 5 5 8 10 8 7 8 8 14 8 7 6 7 5 6 6 13 7 6 6 8 6
WIND DIR S S S S S S S S S S S S S S S S S SE SE SE SE SE SE SE SE SE SE SE SE SE S S S S S S S S SE S S S S S SE S NW W W W NW W NW NW NW
HeatIndex 63 61 58 56 54 54 52 52 52 49 47 47 47 52 58 63 68 72 74 76 76 76 72 68 63 61 58 58 56 56 56 54 54 52 50 65 74 76 67 59 59 76 67 63 59 68 63 58 50 65 56 49 41 58 50
Rain Showers -- -- -- -- -- -- -- -- -- -- -- -- -- -- -- -- -- -- -- -- -- -- -- -- -- -- -- -- -- -- -- -- -- -- -- -- -- -- -- -- Chance Chance Likely Likely Likely Likely Chance Chance Chance Chance -- -- -- -- --
Thunder Storm -- -- -- -- -- -- -- -- -- -- -- -- -- -- -- -- -- -- -- -- -- -- -- -- -- -- -- -- -- -- -- -- -- -- -- -- -- -- -- -- -- -- Chance -- -- Slight Chance -- -- -- -- -- -- -- -- --
WIND CHILL -- -- -- -- -- -- -- -- -- -- -- -- -- -- -- -- -- -- -- -- -- -- -- -- -- -- -- -- -- -- -- -- -- -- -- -- -- -- -- -- -- -- -- -- -- -- -- -- -- -- -- -- 42° -- --
SPRAY COND
DRY COND
LIVESTOCK COLDSTRESS
LIVESTOCK HEATSTRESS 62.05 60.56 58.13 56.40 54.55 54.48 52.67 52.64 52.52 49.59 47.26 47.00 47.26 52.41 58.10 62.17 65.67 68.30 69.49 70.61 70.23 70.42 68.15 65.77 62.24 60.66 58.11 58.10 56.35 56.40 56.40 54.61 54.61 52.75 50.87 63.64 69.74 71.08 65.29 58.97 58.98 72.22 66.14 62.77 59.00 66.73 62.70 58.06 50.34 63.50 56.57 50.56 46.90 58.24 51.79

Click on individual weather variable above in left-hand column (ie., TEMP, RH, QPF 12HR) to view state forecast maps






NWS 48 Hr. Forecast Maps,

Regional Hourly Observations For SIMPSON County, Kentucky
Issued at 500 PM EDT THU OCT 19 2017
WESTERN AND SOUTH CENTRAL KENTUCKY
  
CITY           SKY/WX    TMP DP  RH WIND       PRES   REMARKS
PADUCAH        SUNNY     77  49  37 S5        30.18F                  
HENDERSON      SUNNY     77  52  41 S9        30.19F                  
OWENSBORO      SUNNY     76  52  43 S9        30.20S                  
HOPKINSVILLE   SUNNY     74  49  40 S7        30.21F                  
BOWLING GREEN  SUNNY     74  47  38 S6        30.23S                  
GLASGOW        SUNNY     73  48  40 S5        30.23F                  


Current NOWCAST not available:
Nowcasts are not issued routinely during fair weather. Only when
precipitation or other significant weather is occuring in this county will these
forecasts be issued. Currently, there is no short term forecast in effect.


Fire Weather Forecast For SIMPSON County, KY
Provided by the National Weather Service:

Issued at: Thu Oct 19 17:05:01 EDT 2017

241 PM EDT Thu Oct 19 2017 /141 PM CDT Thu Oct 19 2017/

                      Tonight      Fri          Fri Night    Sat          

CLOUD COVER           Clear        Clear        MClear       MClear       
PRECIP TYPE           NONE         NONE         NONE         NONE         
CHANCE PRECIP (%)     0            0            0            0            
TEMP (24H TREND)      45 (+2)      76 (+2)      50           77           
RH % (24H TREND)      100 (+2)     41 (-2)      87           43           
20FTWND-VAL/AM(MPH)                Lgt/Var                   Lgt/Var      
20FTWND-RDG/PM(MPH)   Lgt/Var      Lgt/Var      Lgt/Var      S  6         
PRECIP AMOUNT         0.00         0.00         0.00         0.00         
MIXING HGT(FT-AGL/MSL)             3693                      4297         
TRANSPORT WND (MPH)                SE  7                     S 17         
VENT RATE (KT-FT)                  29544                     73818        
DISPERSION                         Marginal                  Good         
DSI                   STBL         STBL         STBL         SLGT UNSTBL  
LAL                   1            1            1            1            
HAINES INDEX          5            5            5            4            
ADI EARLY             3 VERY POOR  10 POOR      3 VERY POOR  15 GEN POOR  
ADI LATE              2 VERY POOR  21 FAIR      3 VERY POOR  63 GOOD      
MAX LVORI EARLY       5            9            5            5            
MAX LVORI LATE        8            2            5            1            

REMARKS...ADI IS ATMOSPHERIC DISPERSION INDEX BY LAVDAS.        
LVORI IS LOW VISIBILITY OCCURRENCE RISK INDEX.

.SUNDAY...Mostly cloudy with a 50 percent chance of rain showers.
Lows in the upper 50s. Highs in the upper 70s. South winds around
5 mph. 
.MONDAY...Rain showers likely and chance of thunderstorms. Lows
in the upper 50s. Highs in the lower 70s. East winds 5 to 10 mph.
.TUESDAY...Mostly cloudy. A 50 percent chance of rain showers.
Lows in the lower 50s. Highs in the lower 60s. West winds 5 to
10 mph. 
.WEDNESDAY...Partly cloudy. Lows in the lower 40s. Highs in the
mid 50s. West winds 5 to 10 mph. 
.THURSDAY...Partly cloudy. Lows in the upper 30s. Highs around
60. Southwest winds up to 5 mph. 

SPC's Fire Weather Web Tool (Excellent!), SPC's Fire Weather Outlooks, NWS Fire Weather WEB, Fire Danger Class Map,
Keetch-Byram Drought Index, ROMAN Web, Haines Index ,
WFAS's 10-hr Dead Fuel Moist., WFAS's 100-hr Dead Fuel Moist., Probablity of Ignition, Visual blackness Map, Palmer Drought Index, HPC's Rainfall Forecast Maps


Hazardous Weather Outlook For SIMPSON County, Kentucky
302 PM EDT Thu Oct 19 2017 /202 PM CDT Thu Oct 19 2017/

 DAY ONE  Tonight.

No hazardous weather is expected at this time.

 DAYS TWO THROUGH SEVEN  Friday through Wednesday.

Showers and thunderstorms will be possible Sunday and Monday as a
cold front moves through the region. Gusty winds will be possible,
but organized severe weather is not expected at this time. 

 SPOTTER INFORMATION STATEMENT  

Spotter activation is not needed at this time. 

Latest SIMPSON County, Kentucky Watches, Warnings and Advisories.
Additional Drought Info.: UKAWC Drought Page, Kentucky Drought Watch


7-Day Forecast For SIMPSON County, KY

TONIGHT
Clear. Lows in the mid 40s. South winds up to 5 mph.

FRIDAY
Sunny. Highs in the upper 70s. Southeast winds up to 5 mph.

FRIDAY NIGHT
Partly cloudy. Lows around 50. Southeast winds around 5 mph.

SATURDAY
Partly cloudy. Highs in the upper 70s. South winds 5 to 10 mph.

SATURDAY NIGHT
Partly cloudy. Lows in the upper 50s. South winds 5 to 10 mph.

SUNDAY
Mostly cloudy with a 50 percent chance of showers. Highs in the upper 70s.

SUNDAY NIGHT
Showers likely and chance of thunderstorms. Lows around 60. Chance of precipitation 70 percent.

MONDAY
Showers likely and slight chance of thunderstorms. Highs in the lower 70s. Chance of precipitation 70 percent.

MONDAY NIGHT
Partly cloudy with a 50 percent chance of showers. Lows in the lower 50s.

TUESDAY
Partly cloudy with a 30 percent chance of showers. Highs in the mid 60s.

TUESDAY NIGHT
Partly cloudy with a 20 percent chance of showers. Lows in the lower 40s.

WEDNESDAY
Partly cloudy. Highs in the upper 50s.

WEDNESDAY NIGHT
Partly cloudy. Lows in the upper 30s.

THURSDAY
Mostly sunny. Highs in the lower 60s.

Ag Weather Center, Department of Biosystems & Agricultural Engineering, University of Kentucky